Find Starlink 11295

NORAD ID: 61536 Int'l Des: 2024-184 Owner: SPXS Country: US Constellation: starlink operational
又名: STARLINK-11295 [DTC] celestrak
LEOCIRCULAR

当前视图

正在加载3D地球...

About Starlink 11295

Starlink 11295 (NORAD 61536) is a starlink constellation satellite (v2 mini d2c) launched Oct 15, 2024 by SPXS of US. It operates in LEO, CIRCULAR orbit with a mass of 960.00 kg.

即将过境

Passes for default location (London). Set your location on the main map for personalized predictions.

高度历史

Loading altitude history...

两行轨道根数

1 61536U 24184E 26263.55083999 .00001146 00000-0 14315-4 0 9997
2 61536 53.1600 355.5846 0001080 50.6731 309.4383 15.69708716111020
Epoch: Sep 20, 2026 • Age: 24 hours

当前状态

高度 373.4 km
远地点 / 近地点 N/A
速度 7.69 km/s
星下点 -40.76°S, 108.65°E
发射日期 Oct 15, 2024
运行时间 1.9 years
类型 internet

技术详情

分类 Payload
质量 960.00 kg
干质量 910.00 kg
长度 0.30 m
跨度 29.00 m
形状 ? Box + pan
制造商 SPXS
平台类型 Starlink V2MD
阶段状态 In Orbit
所有者/国家 SPXS/US

Most Searched